Weather History for Durango, Mexico

Change the Weather History Date:

Tuesday, August 20, 2013

  Actual Average Record
Temperature  
Mean Temperature 68 °F -  
Max Temperature 87 °F 78 °F 89 °F (2011)
Min Temperature 48 °F 55 °F 48 °F (2013)
Cooling Degree Days 2    
Growing Degree Days 18 (Base 50)    
Moisture  
Dew Point 41 °F    
Average Humidity 37    
Maximum Humidity 82    
Minimum Humidity 14    
Precipitation  
Precipitation 0.00 in - - ()
Sea Level Pressure  
Sea Level Pressure 29.97 in    
Wind  
Wind Speed 3 mph ()    
Max Wind Speed 12 mph    
Max Gust Speed -    
Visibility 11.7 miles    
Events      
Averages and records for this station are not official NWS values.
T = Trace of Precipitation, MM = Missing Value Source: Averaged Metar Reports

Daily Weather History Graph

Daily Weather History Graph

Search for Another Location

Airport:

Trip Planner

Search our weather history database for the weather conditions in past years. The results will help you decide how hot, cold, wet, or windy it might be!

Date:

Astronomy

Aug. 20, 2013 Rise Set
Actual Time 7:35 AM CDT 8:27 PM CDT
Civil Twilight 7:11 AM CDT 8:50 PM CDT
Nautical Twilight 6:44 AM CDT 9:18 PM CDT
Astronomical Twilight 6:15 AM CDT 9:46 PM CDT
Moon 8:07 PM CDT (8/20) 7:04 AM CDT (8/20)
Length of Visible Light 13h 38m
Length of Day
12h 51m
Full, 100% of the Moon is Illuminated
Aug 20
Full
Aug 20
Full
Aug 28
Last Quarter
Sep 5
New
Sep 12
First Quarter

Hourly Weather History & Observations

Time (CDT) Temp. Dew Point Humidity Pressure Visibility Wind Dir Wind Speed Gust Speed Precip Events Conditions
12:58 AM 68 °F 40 °F 25% 29.72 in 6 mi NNW 2.2 mph - -  
3:58 AM 59 °F 44 °F 45% 29.76 in 6 mi Calm Calm - -   Clear
5:50 AM 48.2 °F 41.0 °F 76% 30.21 in 8.0 mi Calm Calm - N/A   Clear
6:44 AM 48.2 °F 42.8 °F 82% 29.84 in 8.0 mi North 3.5 mph - N/A   Clear
6:58 AM 56 °F 44 °F 53% 29.83 in 6 mi Calm Calm - -   Clear
7:40 AM 48.2 °F 42.8 °F 82% 30.26 in 12.0 mi NNW 3.5 mph - N/A   Partly Cloudy
8:45 AM 55.4 °F 44.6 °F 67% 30.25 in 12.0 mi Calm Calm - N/A   Clear
9:40 AM 62.6 °F 46.4 °F 55% 29.87 in 12.0 mi Calm Calm - N/A   Clear
10:00 AM 63 °F 47 °F 45% 29.93 in 19 mi East 2.2 mph - -   Scattered Clouds
10:40 AM 68.0 °F 42.8 °F 40% 30.27 in 14.0 mi WNW 4.6 mph - N/A   Clear
11:43 AM 73.4 °F 42.8 °F 33% 30.26 in 14.0 mi NNE 6.9 mph - N/A   Clear
12:42 PM 75.2 °F 39.2 °F 27% 29.81 in 12.0 mi NNE 11.5 mph - N/A   Clear
12:55 PM 77 °F 46 °F 23% 29.91 in 25 mi ESE 4.5 mph - -   Scattered Clouds
1:40 PM 77.0 °F 35.6 °F 22% 30.23 in 14.0 mi East 6.9 mph - N/A   Clear
2:41 PM 78.8 °F 37.4 °F 23% 30.20 in 14.0 mi NNE 9.2 mph - N/A   Clear
3:43 PM 78.8 °F 35.6 °F 21% 29.78 in 14.0 mi NNE 6.9 mph - N/A   Scattered Clouds
3:50 PM 84 °F 43 °F 14% 29.78 in 25 mi SE 2.2 mph - -   Scattered Clouds
4:43 PM 80.6 °F 32.0 °F 17% 30.14 in 14.0 mi NNW 5.8 mph - N/A   Scattered Clouds
5:43 PM 80.6 °F 33.8 °F 18% 30.13 in 14.0 mi SSE 4.6 mph - N/A   Scattered Clouds
6:43 PM 80.6 °F 33.8 °F 18% 29.76 in 14.0 mi NW 4.6 mph - N/A   Scattered Clouds
6:55 PM 83 °F 48 °F 19% 29.65 in 25 mi ESE 2.2 mph - -   Partly Cloudy
7:41 PM 78.8 °F 35.6 °F 21% 30.12 in 14.0 mi North 2.3 mph - N/A   Partly Cloudy
9:50 PM 74 °F 47 °F 27% 29.62 in 6 mi Calm Calm - -   Partly Cloudy